[[{"header":{"parameterUnit":"m.s-1","parameterCategory":1,"la1":30.2991,"la2":30.254,"lo1":-89.0895,"lo2":-89.0444,"dx":0.0017,"dy":0.0017,"nx":28,"ny":28,"refTime":"2022-12-23T15:00:00:Z","depth":0,"parameterNumber":2,"parameterNumberName":"U-component_of_WINDS"},"data":[0,0,0,0,0,0,0,0,0,0,0,0,0,0,0,0,0,0,0,0,0,0,0,0,0,0,0,0,0,0,0,0,0,0,0,0,0,0,0,0,0,0,0,0,0,0,0,0,0,0,0,0,0,0,0,0,0,0,4.0328,4.0329,0,4.0411,4.0411,4.0412,4.0393,4.0391,4.039,4.0388,4.0472,4.0475,4.0479,0,0,0,0,0,0,0,0,0,0,0,0,0,4.0155,4.0158,4.0328,4.0329,4.033,4.041,4.0412,4.0413,4.0393,4.0391,4.0389,4.0387,4.0471,4.0475,4.0479,0,0,0,0,0,0,0,0,0,0,0,0,0,4.0233,4.0159,4.0328,4.033,4.0331,4.041,4.0412,4.0413,4.0393,4.0391,4.0389,4.0386,4.0469,4.0474,4.048,4.0562,0,0,4.0497,4.0499,0,0,0,0,0,0,0,0,4.0228,4.0239,4.0329,4.033,4.0331,4.0389,4.0381,4.0463,4.0394,4.037,4.0388,4.0385,4.0446,4.0453,4.0474,4.0566,4.0569,4.0497,4.0501,4.0503,4.0505,0,0,0,0,0,0,0,4.0223,4.0236,4.0361,4.033,4.0332,4.0327,4.0336,4.0397,4.042,4.0372,4.037,4.038,4.0446,4.0469,4.0476,4.0571,4.0497,4.0502,4.0506,4.0508,4.0737,4.0739,0,0,0,0,0,0,4.0216,4.0231,4.0358,4.0363,4.0273,4.0332,4.0342,4.0373,4.0419,4.0424,4.0382,4.0379,4.046,4.0469,4.0479,4.0579,4.0503,4.0508,4.0512,4.0734,4.0737,4.074,0,0,0,0,0,0,4.0213,4.0228,4.0355,4.0297,4.0313,4.0338,4.0373,4.0376,4.0398,4.0428,4.0432,4.0401,4.0459,4.0471,4.0542,4.0582,4.0511,4.0516,4.0731,4.0735,4.0739,4.0779,0,0,0,0,0,0,4.0208,4.0227,4.0258,4.0298,4.0316,4.0416,4.0375,4.0379,4.0408,4.0404,4.0446,4.0451,4.0458,4.0534,4.0548,4.0588,4.052,4.0727,4.0733,4.0737,4.0775,4.0784,4.0793,0,0,0,0,0,4.0202,4.0265,4.0259,4.0275,4.0355,4.0418,4.0429,4.0436,4.0411,4.0443,4.0462,4.0449,4.0575,4.0541,4.0557,4.0599,4.0725,4.0731,4.0737,4.0771,4.0783,4.0793,0,0,0,0,0,0,4.0228,4.027,4.0264,4.0342,4.0377,4.0415,4.0455,4.0448,4.049,4.0485,4.0493,4.0502,4.0575,4.0594,4.0556,4.0682,4.0646,4.0656,4.0667,4.0678,4.0687,4.0681,4.0525,0,0,0,0,0,4.0243,4.0291,4.0325,4.0391,4.0409,4.0429,4.0457,4.046,4.0496,4.051,4.0535,4.0571,4.0619,4.065,4.0695,4.0778,4.0788,4.0815,4.0824,4.0832,4.0839,4.0887,4.09,4.076,4.076,4.076,0,0,4.0274,4.0303,4.0332,4.0397,4.0424,4.0474,4.0441,4.0495,4.0533,4.0518,4.0587,4.0607,4.0648,4.0726,4.0761,4.0744,4.0881,4.084,4.0845,4.0849,4.0894,4.0908,4.0919,4.0765,4.0764,4.0763,0,0,4.0356,4.0382,4.0441,4.047,4.0512,4.0525,4.054,4.058,4.0592,4.0662,4.0653,4.0698,4.078,4.081,4.0836,4.0933,4.0923,4.0948,4.0995,4.1041,4.1052,4.1062,4.1097,4.111,4.0956,4.0956,4.0956,0,4.0388,4.0463,4.0471,4.0527,4.0556,4.0548,4.0607,4.0635,4.069,4.0711,4.0691,4.0795,4.0822,4.0907,4.0931,4.0952,4.097,4.0942,4.105,4.106,4.1069,4.1103,4.1116,4.0959,4.0958,4.0958,4.0958,0,4.0502,4.0555,4.0597,4.0652,4.0686,4.0743,4.0761,4.0795,4.0796,4.0812,4.0884,4.0916,4.0969,4.099,4.0991,4.1077,4.1065,4.1048,4.1011,4.1085,4.1117,4.113,4.0963,4.0962,4.0961,4.096,0,0,4.06,4.0661,4.0676,4.0702,4.075,4.0791,4.0849,4.0901,4.0931,4.097,4.1019,4.1091,4.1076,4.1105,4.111,4.115,4.1227,4.1128,4.1129,4.1146,4.1325,4.1338,4.1353,4.1222,4.1224,4.1226,4.1322,0,4.0687,4.0789,4.08,4.0891,4.0941,4.0935,4.0986,4.1021,4.1039,4.1083,4.1103,4.1154,4.1129,4.1148,4.1188,4.1209,4.1263,4.1203,4.1268,4.127,4.1257,4.1369,4.1382,4.1471,4.1335,4.1337,4.1338,0,4.0801,4.0845,4.0941,4.0985,4.1006,4.1051,4.1102,4.1145,4.1185,4.1196,4.123,4.123,4.1292,4.1255,4.134,4.1298,4.1326,4.1341,4.1345,4.1351,4.1308,4.1378,4.1499,4.1513,4.1358,4.1357,4.1355,0,4.0863,4.0947,4.1016,4.1038,4.109,4.1122,4.1145,4.1184,4.1216,4.126,4.1281,4.1332,4.136,4.14,4.1414,4.1386,4.1499,4.1463,4.151,4.151,4.1533,4.1531,4.166,4.1552,4.1551,4.1551,4.1551,0,4.0959,4.1018,4.1045,4.1087,4.1155,4.1167,4.1234,4.1256,4.1291,4.1338,4.1336,4.1381,4.1397,4.1445,4.1457,4.1527,4.1539,4.155,4.1552,4.155,4.1548,4.1567,4.1561,4.1555,4.1554,4.1553,4.1553,0,4.1039,4.1059,4.1134,4.1179,4.1191,4.1239,4.1277,4.1319,4.1337,4.1397,4.1412,4.144,4.1497,4.1516,4.1584,4.1592,4.1673,4.167,4.1659,4.166,4.1706,4.1701,4.1851,4.1872,4.175,4.1751,4.1752,0,4.1098,4.1144,4.1194,4.1226,4.125,4.1302,4.1335,4.135,4.1384,4.1436,4.1472,4.1529,4.1574,4.1665,4.1692,4.1745,4.1743,4.1792,4.1751,4.1748,4.1744,4.1741,4.1747,4.18,4.1801,4.1802,4.1803,0,4.1201,4.121,4.1257,4.131,4.135,4.1391,4.1432,4.1458,4.1479,4.1519,4.1577,4.1613,4.1684,4.174,4.1794,4.1819,4.1815,4.1816,4.183,4.1827,4.1819,4.1825,4.168,4.1812,4.1811,4.181,4.181,4.1809,4.1273,4.1314,4.1356,4.141,4.1443,4.1481,4.1523,4.1548,4.1597,4.1655,4.1662,4.1725,4.1767,4.184,4.1868,4.1918,4.1905,4.1924,4.1929,4.1934,4.1938,4.1812,4.1928,4.1928,4.1928,4.1928,4.1927,0,4.1376,4.1403,4.1453,4.1511,4.1554,4.1548,4.1593,4.1629,4.1685,4.1725,4.1771,4.1839,4.1894,4.1927,4.1983,4.2017,4.2017,4.2031,4.2029,4.2035,4.1946,4.1929,4.2031,4.2031,4.2031,4.2031,4.2031,4.2031,4.1435,4.1505,4.1519,4.1606,4.1633,4.1695,4.1722,4.1758,4.1791,4.1867,4.1913,4.1935,4.1972,4.2032,4.2083,4.2091,4.2112,4.2128,4.2135,4.2051,4.2041,4.2031,4.2014,4.2132,4.2132,4.2219,4.222,4.2221]},{"header":{"parameterUnit":"m.s-1","parameterCategory":1,"la1":30.2991,"la2":30.254,"lo1":-89.0895,"lo2":-89.0444,"dx":0.0017,"dy":0.0017,"nx":28,"ny":28,"refTime":"2022-12-23T15:00:00:Z","depth":0,"parameterNumber":3,"parameterNumberName":"V-component_of_WINDS"},"data":[0,0,0,0,0,0,0,0,0,0,0,0,0,0,0,0,0,0,0,0,0,0,0,0,0,0,0,0,0,0,0,0,0,0,0,0,0,0,0,0,0,0,0,0,0,0,0,0,0,0,0,0,0,0,0,0,0,0,-11.3687,-11.369,0,-11.3891,-11.3893,-11.3896,-11.3814,-11.3809,-11.3804,-11.38,-11.4001,-11.4011,-11.402,0,0,0,0,0,0,0,0,0,0,0,0,0,-11.3223,-11.3232,-11.3687,-11.369,-11.3692,-11.3891,-11.3893,-11.3896,-11.3814,-11.3809,-11.3803,-11.3797,-11.3998,-11.4009,-11.4021,0,0,0,0,0,0,0,0,0,0,0,0,0,-11.3425,-11.3235,-11.3687,-11.3676,-11.3677,-11.389,-11.3894,-11.3897,-11.3816,-11.3808,-11.3801,-11.3795,-11.3994,-11.4008,-11.4023,-11.4257,0,0,-11.4068,-11.4074,0,0,0,0,0,0,0,0,-11.3414,-11.3442,-11.3675,-11.3677,-11.3678,-11.382,-11.3803,-11.4017,-11.3817,-11.3763,-11.3799,-11.3791,-11.3946,-11.3964,-11.4018,-11.4267,-11.4275,-11.4069,-11.4078,-11.4084,-11.4089,0,0,0,0,0,0,0,-11.34,-11.3433,-11.3767,-11.3678,-11.368,-11.3659,-11.368,-11.3844,-11.3892,-11.3767,-11.3761,-11.3787,-11.3946,-11.4004,-11.4022,-11.4278,-11.4069,-11.4082,-11.4091,-11.4097,-11.4731,-11.4738,0,0,0,0,0,0,-11.3386,-11.3422,-11.3761,-11.3774,-11.3526,-11.3673,-11.3696,-11.3781,-11.389,-11.39,-11.3793,-11.3782,-11.3982,-11.4005,-11.4029,-11.4311,-11.4084,-11.4098,-11.4107,-11.4723,-11.4732,-11.4741,0,0,0,0,0,0,-11.3376,-11.3417,-11.3753,-11.3597,-11.3638,-11.3689,-11.3785,-11.3789,-11.3848,-11.391,-11.3917,-11.3844,-11.3978,-11.4008,-11.4202,-11.4317,-11.4105,-11.4118,-11.4713,-11.4726,-11.4737,-11.4878,0,0,0,0,0,0,-11.3364,-11.3414,-11.3505,-11.3599,-11.3646,-11.3925,-11.3792,-11.3798,-11.3874,-11.3862,-11.396,-11.3969,-11.3974,-11.418,-11.4217,-11.4334,-11.413,-11.4703,-11.4719,-11.4733,-11.4863,-11.4893,-11.4919,0,0,0,0,0,-11.3347,-11.3534,-11.351,-11.3551,-11.3761,-11.3931,-11.3958,-11.3963,-11.3884,-11.3975,-11.4015,-11.3966,-11.4299,-11.4201,-11.4241,-11.4364,-11.4696,-11.4714,-11.4732,-11.4851,-11.4887,-11.4918,0,0,0,0,0,0,-11.3449,-11.3546,-11.352,-11.3744,-11.3831,-11.3917,-11.4032,-11.4001,-11.4109,-11.4094,-11.4092,-11.4115,-11.4316,-11.4359,-11.4248,-11.4597,-11.4485,-11.4512,-11.4562,-11.4597,-11.4625,-11.461,-11.4142,0,0,0,0,0,-11.3498,-11.363,-11.3707,-11.3897,-11.3942,-11.398,-11.4054,-11.4051,-11.4139,-11.4175,-11.4229,-11.4315,-11.4439,-11.452,-11.4638,-11.4869,-11.4889,-11.4974,-11.5002,-11.5024,-11.5047,-11.5174,-11.5213,-11.48,-11.48,-11.48,0,0,-11.3599,-11.3669,-11.3752,-11.392,-11.3986,-11.4122,-11.4011,-11.4158,-11.4259,-11.4196,-11.4383,-11.4427,-11.4522,-11.4737,-11.4833,-11.4779,-11.5166,-11.5047,-11.5065,-11.5076,-11.5197,-11.5236,-11.527,-11.4813,-11.481,-11.4808,0,0,-11.3854,-11.392,-11.4086,-11.4156,-11.426,-11.4284,-11.4324,-11.4417,-11.4444,-11.4633,-11.4589,-11.4708,-11.4921,-11.4992,-11.5056,-11.5341,-11.53,-11.5379,-11.5524,-11.5648,-11.568,-11.5709,-11.5811,-11.5848,-11.5402,-11.5402,-11.5402,0,-11.3966,-11.4171,-11.4175,-11.4328,-11.4403,-11.4356,-11.4524,-11.4591,-11.4726,-11.4778,-11.4716,-11.4985,-11.5046,-11.5277,-11.5347,-11.54,-11.5445,-11.5367,-11.5676,-11.5705,-11.5731,-11.5829,-11.5867,-11.5411,-11.541,-11.5409,-11.5408,0,-11.4304,-11.4447,-11.4568,-11.4705,-11.4793,-11.4952,-11.498,-11.5069,-11.5059,-11.5089,-11.5282,-11.5355,-11.5487,-11.5541,-11.5531,-11.5772,-11.5735,-11.5675,-11.5562,-11.578,-11.5871,-11.5908,-11.5424,-11.5421,-11.5418,-11.5416,0,0,-11.4626,-11.4765,-11.481,-11.4872,-11.4984,-11.5093,-11.5251,-11.5383,-11.546,-11.5555,-11.5687,-11.587,-11.5816,-11.5889,-11.5886,-11.5995,-11.6217,-11.5921,-11.5924,-11.5974,-11.6487,-11.6532,-11.6575,-11.6191,-11.6198,-11.6204,-11.6479,0,-11.4889,-11.5168,-11.5178,-11.5432,-11.5564,-11.5523,-11.566,-11.5743,-11.5777,-11.5892,-11.5927,-11.6058,-11.5977,-11.6021,-11.6127,-11.6168,-11.632,-11.6148,-11.6312,-11.6318,-11.629,-11.6622,-11.667,-11.6926,-11.6515,-11.6521,-11.6525,0,-11.5233,-11.5344,-11.5612,-11.5708,-11.5763,-11.5887,-11.601,-11.6121,-11.6214,-11.6231,-11.6315,-11.6297,-11.6457,-11.634,-11.656,-11.6443,-11.6511,-11.6541,-11.6551,-11.6566,-11.6434,-11.6646,-11.7007,-11.7046,-11.6581,-11.6577,-11.6573,0,-11.5442,-11.5657,-11.5846,-11.59,-11.6016,-11.6104,-11.6156,-11.6243,-11.6322,-11.6429,-11.6481,-11.6604,-11.6671,-11.6766,-11.6782,-11.6696,-11.7003,-11.6887,-11.7021,-11.7021,-11.7086,-11.7082,-11.7463,-11.7131,-11.713,-11.713,-11.7129,0,-11.5735,-11.5901,-11.5942,-11.6058,-11.6243,-11.6252,-11.6434,-11.6479,-11.6557,-11.668,-11.6651,-11.6766,-11.678,-11.69,-11.6913,-11.7093,-11.7124,-11.7141,-11.7142,-11.7144,-11.7142,-11.7187,-11.717,-11.714,-11.7137,-11.7135,-11.7134,0,-11.5999,-11.6033,-11.6236,-11.6331,-11.6359,-11.649,-11.657,-11.6681,-11.6712,-11.6869,-11.6906,-11.6955,-11.7094,-11.712,-11.7283,-11.7292,-11.7507,-11.749,-11.7477,-11.7475,-11.7607,-11.7594,-11.8031,-11.8089,-11.7719,-11.7722,-11.7725,0,-11.6183,-11.631,-11.642,-11.6502,-11.6559,-11.6691,-11.6773,-11.6788,-11.6874,-11.6992,-11.7088,-11.7225,-11.7335,-11.7559,-11.7608,-11.7733,-11.7719,-11.7864,-11.7737,-11.7735,-11.7721,-11.7714,-11.7726,-11.7887,-11.7891,-11.7895,-11.7897,0,-11.6507,-11.6519,-11.664,-11.6768,-11.6868,-11.6969,-11.7064,-11.7132,-11.7159,-11.7258,-11.7402,-11.7488,-11.7656,-11.7792,-11.7918,-11.7969,-11.7938,-11.7937,-11.7975,-11.7977,-11.7964,-11.7973,-11.7543,-11.7926,-11.7924,-11.7921,-11.792,-11.7919,-11.6737,-11.6849,-11.6944,-11.708,-11.7155,-11.7245,-11.7355,-11.7402,-11.7523,-11.7663,-11.7664,-11.7822,-11.7912,-11.8078,-11.8138,-11.826,-11.8214,-11.8268,-11.8282,-11.8295,-11.8308,-11.7946,-11.8283,-11.8282,-11.8281,-11.828,-11.828,0,-11.706,-11.712,-11.7246,-11.7382,-11.7489,-11.7454,-11.7559,-11.765,-11.779,-11.7879,-11.7989,-11.8155,-11.8288,-11.8348,-11.8479,-11.8565,-11.8554,-11.8599,-11.8592,-11.8605,-11.8341,-11.8296,-11.8605,-11.8605,-11.8605,-11.8605,-11.8605,-11.8605,-11.724,-11.7428,-11.7452,-11.7676,-11.7734,-11.7891,-11.7954,-11.8037,-11.8108,-11.8296,-11.8407,-11.8447,-11.8525,-11.8661,-11.8781,-11.8795,-11.8844,-11.8895,-11.8903,-11.8656,-11.8623,-11.8591,-11.8549,-11.8906,-11.8907,-11.9156,-11.9158,-11.916]}]]